Погода в Дзержонюве

Польша     50°44′01″N   16°38′51″E
темп.,
°C
ветер,
м/с
пор.,
м/с
влажн.,
%
обл.,
%
осадки,
мм/ч
давл.,
гПа
погр.,
м
1 марта, пн
пн101:00+3с479176 0.0 1035487
04:00+3с3488100 0.0 1035391
07:00+2ссв1189100 0.0 1036217
10:00+3ссз1180100 0.0 1037367
13:00+6всв217079 0.0 1037473
16:00+7в21732 0.0 1035394
19:00+3юв12891 0.0 103622
22:00+3ююз12900 0.0 103622
2 марта, вт
вт201:00+3ююз11860 0.0 103622
04:00+2юз11830 0.0 103522
07:00+2юз12790 0.0 103622
10:00+8ссз11600 0.0 1035261
13:00+12сз12480 0.0 1034518
16:00+12ссв11540 0.0 1033316
19:00+7зюз01690 0.0 103322
22:00+6юз11730 0.0 103422
3 марта, ср
ср301:00+5ююз11780 0.0 103422
04:00+4ююз12760 0.0 103222
07:00+3юз22680 0.0 103122
10:00+10юз12500 0.0 1030242
13:00+13ююз23399 0.0 1028658
16:00+12юз374872 0.0 1025586
19:00+6зюз347251 0.0 102572
22:00+5юз347611 0.0 102467
4 марта, чт
чт401:00+5юз447917 0.0 102282
04:00+4юз448136 0.0 102078
07:00+4юз458543 0.0 1018110
10:00+8юз3571100 0.0 1016278
13:00+11зюз466199 0.0 1015883
16:00+11з3566100 0.0 1012708
19:00+8з2585100 1.1 1011297
22:00+5сз61092100 5.1 1011669
5 марта, пт
пт501:00+4сз5987100 5.9 1012722
04:00+2ссз5996100 1.9 1013549
07:00−1с61094100 3.9 1017710
10:000с6875100 0.6 10201157
13:00+2с6860100 0.8 10211589
16:00+2ссз575379 0.3 10221778
19:000сз497370 0.6 1025411
22:00−1сз497386 0.1 1027294